Flag for U.S.A. Weather past 2 weeks in Sacramento, California, U.S.A.

Now
60 °F

Clear.


Feels Like: 60 °F
Forecast: 56 / 74 °F
Wind: No wind

Location: Sacramento Executive Airport

Current Time: Oct 23, 2014 at 4:47:41 AM

Latest Report: Oct 23, 2014 at 3:53 AM


Visibility: 10 mi

Pressure: 30.01 "Hg

Humidity: 80%

Dew point: 54 °F

Location of SacramentoLocation

Historic Weather in Sacramento — Graph

°F

Sacramento temperature yesterday

Maximum temperature yesterday: 76 °F (at 4:53 PM)
Minimum temperature yesterday: 48 °F (at 7:53 AM)
Average temperature yesterday: 62 °F

Past Weeks' High & Low Weather Summary

 TemperatureHumidityPressure
High96 °F (Oct 8, 2:53 PM)93% (Oct 15, 4:53 AM)30.10 "Hg (Oct 15, 4:53 AM)
Low48 °F (Oct 21, 5:53 AM)10% (Oct 12, 2:53 PM)29.79 "Hg (Oct 8, 5:53 PM)
Average67 °F59%29.94 "Hg
* Reported Oct 8 2:53 AM — Oct 23 2:53 AM, Sacramento, Weather by CustomWeather, © 2014

Note: Actual official high and low records may vary slightly from our data, if they occured in-between our weather recording intervals... More about our weather records

Advertising

Sacramento weather history for previous 24 hours

 ConditionsComfort  
Time TempWeatherWind HumidityBarometerVisibility
2:53 AM
Oct 23
60 °FClear.5 mph80%30.01 "Hg10 mi
1:53 AM60 °FClear.No wind78%30.01 "Hg10 mi
12:53 AM61 °FClear.6 mph75%30.01 "Hg10 mi
11:53 PM
Oct 22
63 °FClear.3 mph70%30.02 "Hg10 mi
10:53 PM64 °FClear.5 mph70%30.02 "Hg10 mi
9:53 PM65 °FClear.5 mph68%30.01 "Hg10 mi
8:53 PM68 °FClear.5 mph57%30.00 "Hg10 mi
7:53 PM68 °FClear.5 mph49%30.02 "Hg10 mi
6:53 PM70 °FSunny.No wind44%29.99 "Hg10 mi
5:53 PM73 °FSunny.No wind38%29.99 "Hg10 mi
4:53 PM76 °FSunny.No wind29%29.99 "Hg10 mi
3:53 PM75 °FSunny.No wind30%30.00 "Hg10 mi
2:53 PM75 °FSunny.No wind31%30.02 "Hg10 mi
1:53 PM73 °FSunny.No wind34%30.04 "Hg10 mi
12:53 PM71 °FSunny.No wind36%30.05 "Hg10 mi
11:53 AM69 °FSunny.No wind42%30.07 "Hg10 mi
10:53 AM64 °FSunny.3 mph50%30.07 "Hg10 mi
9:53 AM60 °FSunny.No wind58%30.06 "Hg10 mi
8:53 AM56 °FSunny.No wind65%30.05 "Hg10 mi
7:53 AM48 °FClear.No wind83%30.03 "Hg10 mi
6:53 AM49 °FClear.No wind84%30.03 "Hg10 mi
5:53 AM49 °FClear.No wind86%30.03 "Hg10 mi
4:53 AM49 °FClear.No wind86%30.03 "Hg10 mi
Weather by CustomWeather, © 2014

See weather overviewHow to use our weather pages